Location: Sungai Bunut
(2.6333°N, 113.7333°E)
Time: 01:57:58
(UTC+00:00)

S-56A Canister/Altair - Pass Details

Date: 08 December 2023
Orbit: 640 x 2488 km, 38.9° (Epoch: 24 February)

Event Time Altitude Azimuth Distance (km) Brightness Sun altitude
Rises 23:06:41 0° 229° (SW) 5,572 11.7 10.4°
Reaches altitude 10° 23:10:45 10° 229° (SW) 4,315 11.1 11.3°
Maximum altitude 23:21:48 89° 315° (NW) 1,392 9.1 13.8°
Drops below altitude 10° 23:28:54 10° 48° (NE) 2,857 10.8 15.4°
Sets 23:31:06 0° 48° (NE) 3,624 11.3 15.9°
